Weather History for KCUL - September, 2012

Change the Weather History Date:

Tuesday, September 25, 2012

  Actual Average (KEVV) Record (KEVV)
Temperature  
Mean Temperature 69 °F 65 °F  
Max Temperature 85 °F 78 °F 92 °F (1931)
Min Temperature 53 °F 53 °F 37 °F (1950)
Degree Days  
Heating Degree Days 0 3  
Month to date heating degree days 26  
Since 1 July heating degree days 27  
Cooling Degree Days 4 3  
Month to date cooling degree days 153  
Year to date cooling degree days 1352  
Growing Degree Days 19 (Base 50)    
Moisture  
Dew Point 59 °F    
Average Humidity 74    
Maximum Humidity 91    
Minimum Humidity 52    
Precipitation  
Precipitation 0.06 in 0.11 in 3.25 in (1945)
Month to date precipitation 2.52  
Year to date precipitation 33.44  
Snow  
Snow 0.00 in 0.00 in - ()
Month to date snowfall 0.0  
Since 1 July snowfall 0.0  
Since 1 September snowfall 0.0  
Snow Depth -    
Sea Level Pressure  
Sea Level Pressure 29.97 in    
Wind  
Wind Speed 8 mph (SSE)    
Max Wind Speed 21 mph    
Max Gust Speed 28 mph    
Visibility 10 miles    
Events Rain , Thunderstorm    
T = Trace of Precipitation, MM = Missing Value Source: NWS Daily Summary

Daily Weather History Graph

Daily Weather History Graph

Search for Another Location

Airport or City:

Trip Planner

Search our weather history database for the weather conditions in past years. The results will help you decide how hot, cold, wet, or windy it might be!

Date:

Astronomy

Sep. 25, 2012 Rise Set
Actual Time 6:43 AM CDT 6:43 PM CDT
Civil Twilight 6:17 AM CDT 7:10 PM CDT
Nautical Twilight 5:46 AM CDT 7:40 PM CDT
Astronomical Twilight 5:15 AM CDT 8:11 PM CDT
Moon 4:05 PM CDT (9/25) 2:08 AM CDT (9/25)
Length of Visible Light 12h 53m
Length of Day
12h 00m
Waxing Gibbous, 80% of the Moon is Illuminated
Sep 25
Waxing Gibbous
Sep 29
Full
Oct 8
Last Quarter
Oct 15
New
Oct 21
First Quarter

Hourly Weather History & Observations

Time (CDT) Temp. Heat Index Dew Point Humidity Pressure Visibility Wind Dir Wind Speed Gust Speed Precip Events Conditions
12:15 AM 54.3 °F - 47.7 °F 78% 30.02 in 10.0 mi SSE 6.9 mph - N/A   Clear
12:35 AM 53.6 °F - 47.7 °F 80% 30.02 in 10.0 mi SSE 4.6 mph - N/A   Clear
12:55 AM 54.5 °F - 47.8 °F 78% 30.02 in 10.0 mi South 4.6 mph - N/A   Clear
1:15 AM 54.0 °F - 48.2 °F 81% 30.01 in 10.0 mi SSE 6.9 mph - N/A   Clear
1:35 AM 53.6 °F - 48.2 °F 82% 30.01 in 10.0 mi SSE 5.8 mph - N/A   Clear
1:55 AM 53.8 °F - 48.6 °F 82% 30.00 in 10.0 mi SSE 8.1 mph - N/A   Clear
2:15 AM 55.4 °F - 49.1 °F 79% 30.00 in 10.0 mi SSE 4.6 mph - N/A   Clear
2:35 AM 56.5 °F - 49.3 °F 77% 30.00 in 10.0 mi SSE 4.6 mph - N/A   Clear
2:55 AM 57.2 °F - 50.0 °F 77% 29.98 in 10.0 mi SE 6.9 mph - N/A   Clear
3:15 AM 58.1 °F - 50.0 °F 74% 29.98 in 10.0 mi SSE 4.6 mph - N/A   Clear
3:35 AM 58.1 °F - 50.7 °F 76% 29.97 in 10.0 mi SSE 5.8 mph - N/A   Scattered Clouds
3:55 AM 58.1 °F - 50.9 °F 77% 29.95 in 10.0 mi SSE 8.1 mph - N/A   Clear
4:15 AM 59.0 °F - 51.3 °F 75% 29.96 in 10.0 mi SSE 6.9 mph - N/A   Clear
4:35 AM 59.4 °F - 51.3 °F 75% 29.94 in 10.0 mi SSE 8.1 mph - N/A Thunderstorm Clear
4:55 AM 60.1 °F - 51.6 °F 74% 29.94 in 10.0 mi SSE 6.9 mph - N/A Thunderstorm Thunderstorm
5:15 AM 60.8 °F - 52.0 °F 73% 29.95 in 10.0 mi Calm Calm - N/A Rain , Thunderstorm Light Thunderstorms and Rain
5:35 AM 60.8 °F - 52.3 °F 74% 29.94 in 10.0 mi ESE 4.6 mph - N/A Thunderstorm Mostly Cloudy
5:55 AM 61.0 °F - 52.9 °F 75% 29.99 in 10.0 mi North 8.1 mph 25.3 mph N/A Thunderstorm Mostly Cloudy
6:15 AM 60.8 °F - 53.2 °F 76% 29.98 in 10.0 mi ENE 3.5 mph - N/A Thunderstorm Overcast
6:35 AM 60.8 °F - 53.6 °F 77% 29.97 in 10.0 mi East 4.6 mph - N/A Thunderstorm Mostly Cloudy
6:55 AM 60.4 °F - 53.8 °F 79% 29.97 in 10.0 mi East 6.9 mph - N/A Thunderstorm Mostly Cloudy
7:15 AM 60.3 °F - 54.7 °F 82% 29.99 in 10.0 mi ENE 6.9 mph - N/A Rain , Thunderstorm Light Thunderstorms and Rain
7:35 AM 59.9 °F - 55.2 °F 84% 30.01 in 10.0 mi NNE 10.4 mph - N/A Rain , Thunderstorm Light Thunderstorms and Rain
7:55 AM 59.0 °F - 55.6 °F 88% 30.03 in 10.0 mi NNE 8.1 mph - N/A Thunderstorm Thunderstorm
8:15 AM 58.8 °F - 56.3 °F 91% 30.04 in 10.0 mi NE 5.8 mph - 0.03 in Rain Light Rain
8:35 AM 59.7 °F - 57.2 °F 91% 30.04 in 10.0 mi East 4.6 mph - 0.03 in   Overcast
8:55 AM 60.3 °F - 57.2 °F 90% 30.03 in 7.0 mi East 4.6 mph - 0.04 in Rain , Thunderstorm Rain
9:15 AM 60.1 °F - 57.4 °F 91% 30.03 in 7.0 mi ESE 5.8 mph - 0.01 in Rain , Thunderstorm Thunderstorms and Rain
9:35 AM 60.8 °F - 58.1 °F 91% 30.03 in 10.0 mi SE 6.9 mph - 0.02 in Rain Light Rain
9:55 AM 62.6 °F - 58.8 °F 87% 30.02 in 10.0 mi SSE 9.2 mph - 0.02 in   Scattered Clouds
10:15 AM 64.2 °F - 59.5 °F 85% 30.01 in 7.0 mi SSE 8.1 mph - N/A   Mostly Cloudy
10:35 AM 68.0 °F - 60.8 °F 78% 30.00 in 10.0 mi SSE 11.5 mph - N/A Thunderstorm Scattered Clouds
10:55 AM 70.2 °F - 60.3 °F 71% 29.99 in 10.0 mi SSE 15.0 mph - N/A   Mostly Cloudy
11:15 AM 72.7 °F - 60.6 °F 66% 29.99 in 10.0 mi South 16.1 mph 20.7 mph N/A   Scattered Clouds
11:35 AM 72.7 °F - 61.0 °F 67% 29.98 in 7.0 mi South 13.8 mph 19.6 mph N/A   Scattered Clouds
11:55 AM 74.5 °F - 62.2 °F 66% 29.98 in 10.0 mi South 13.8 mph 19.6 mph N/A   Clear
12:15 PM 74.7 °F - 62.4 °F 66% 29.97 in 10.0 mi South 13.8 mph 20.7 mph N/A   Clear
12:35 PM 78.3 °F - 63.7 °F 61% 29.97 in 10.0 mi SSW 13.8 mph 21.9 mph N/A   Scattered Clouds
12:55 PM 78.6 °F - 63.0 °F 59% 29.95 in 10.0 mi South 19.6 mph 24.2 mph N/A   Scattered Clouds
1:15 PM 80.2 °F 81.6 °F 63.3 °F 56% 29.94 in 10.0 mi South 20.7 mph 25.3 mph N/A   Mostly Cloudy
2:15 PM 83.5 °F 84.9 °F 64.4 °F 52% 29.92 in 10.0 mi South 13.8 mph 19.6 mph N/A   Scattered Clouds
2:35 PM 81.7 °F 83.3 °F 64.6 °F 56% 29.92 in 10.0 mi South 13.8 mph 23.0 mph N/A   Clear
2:55 PM 83.1 °F 85.0 °F 65.7 °F 55% 29.91 in 10.0 mi SSW 13.8 mph 21.9 mph N/A   Clear
3:15 PM 82.9 °F 85.0 °F 65.7 °F 56% 29.91 in 10.0 mi South 18.4 mph - N/A   Clear
3:35 PM 83.5 °F 85.7 °F 66.4 °F 56% 29.91 in 10.0 mi SSW 13.8 mph - N/A   Clear
3:55 PM 85.3 °F 87.4 °F 66.0 °F 52% 29.92 in 10.0 mi SSW 10.4 mph - N/A   Clear
4:15 PM 83.8 °F 86.0 °F 66.2 °F 55% 29.92 in 10.0 mi SSE 9.2 mph - N/A   Mostly Cloudy
4:35 PM 83.1 °F 85.4 °F 66.2 °F 57% 29.91 in 10.0 mi SSW 9.2 mph - N/A Thunderstorm Overcast
4:55 PM 83.3 °F 85.7 °F 66.7 °F 57% 29.91 in 10.0 mi SSW 6.9 mph - N/A   Mostly Cloudy
5:15 PM 82.8 °F 85.3 °F 66.9 °F 59% 29.90 in 10.0 mi SSE 6.9 mph - N/A   Mostly Cloudy
5:35 PM 82.4 °F 85.0 °F 67.3 °F 60% 29.89 in 10.0 mi SSE 10.4 mph - N/A   Overcast
5:55 PM 80.8 °F 83.2 °F 67.3 °F 63% 29.92 in 10.0 mi SSE 6.9 mph - N/A   Overcast
6:15 PM 79.7 °F - 67.3 °F 66% 29.91 in 10.0 mi SE 9.2 mph - N/A   Overcast
6:35 PM 78.3 °F - 67.3 °F 69% 29.90 in 10.0 mi SE 8.1 mph - N/A Thunderstorm Scattered Clouds
6:55 PM 77.2 °F - 67.1 °F 71% 29.91 in 10.0 mi SSE 8.1 mph - N/A Thunderstorm Clear
7:15 PM 76.1 °F - 67.3 °F 74% 29.89 in 10.0 mi SSE 10.4 mph - N/A Thunderstorm Thunderstorm
7:55 PM 76.3 °F - 67.5 °F 74% 29.90 in 10.0 mi SSE 9.2 mph - N/A   Clear
8:15 PM 76.1 °F - 67.1 °F 74% 29.91 in 10.0 mi SSE 10.4 mph - N/A   Clear
8:35 PM 75.7 °F - 67.1 °F 74% 29.96 in 10.0 mi SW 8.1 mph - N/A Thunderstorm Thunderstorm
9:15 PM 67.6 °F - 61.2 °F 80% 30.02 in 10.0 mi WNW 12.7 mph - N/A Rain , Thunderstorm Light Thunderstorms and Rain
9:35 PM 66.2 °F - 61.7 °F 85% 29.99 in 10.0 mi Calm Calm - N/A Thunderstorm Thunderstorm
9:55 PM 65.7 °F - 62.1 °F 88% 29.98 in 10.0 mi Calm Calm - N/A Thunderstorm Scattered Clouds
10:15 PM 66.0 °F - 61.7 °F 86% 29.98 in 10.0 mi SE 6.9 mph - N/A   Scattered Clouds
10:35 PM 66.2 °F - 61.7 °F 85% 29.99 in 10.0 mi Calm Calm - N/A Thunderstorm Clear
10:55 PM 66.7 °F - 62.1 °F 85% 30.04 in 10.0 mi WNW 10.4 mph 27.6 mph N/A Thunderstorm Scattered Clouds
11:35 PM 67.1 °F - 62.1 °F 84% 30.01 in 10.0 mi Calm Calm - N/A   Overcast